Time,TemperatureF,DewpointF,PressureIn,WindDirection,WindDirectionDegrees,WindSpeedMPH,WindSpeedGustMPH,Humidity,HourlyPrecipIn,Conditions,Clouds,dailyrainin,SolarRadiationWatts/m^2,SoftwareType,DateUTC
2013-07-04 00:02:00,73.0,73.0,29.83,SE,144,4.0,9.0,100,0.00,,,0.53,0.000000,,2013-07-04 04:02:00,
2013-07-04 00:11:00,73.0,73.0,29.83,SE,144,4.0,9.0,100,0.00,,,0.53,0.000000,,2013-07-04 04:11:00,
2013-07-04 00:43:00,71.0,71.0,29.84,SE,127,2.0,7.0,100,0.00,,,0.53,0.000000,,2013-07-04 04:43:00,
2013-07-04 00:52:00,71.0,71.0,29.84,SE,127,2.0,7.0,100,0.00,,,0.53,0.000000,,2013-07-04 04:52:00,
2013-07-04 01:02:00,71.0,71.0,29.84,SE,127,2.0,7.0,100,0.00,,,0.53,0.000000,,2013-07-04 05:02:00,
2013-07-04 01:12:00,71.0,71.0,29.84,SE,127,2.0,7.0,100,0.00,,,0.53,0.000000,,2013-07-04 05:12:00,
2013-07-04 01:43:00,71.0,71.0,29.84,South,175,2.0,11.0,100,0.00,,,0.53,0.000000,,2013-07-04 05:43:00,
2013-07-04 01:52:00,71.0,71.0,29.84,South,175,2.0,11.0,100,0.00,,,0.53,0.000000,,2013-07-04 05:52:00,
2013-07-04 02:01:00,71.0,71.0,29.84,South,175,2.0,11.0,100,0.00,,,0.53,0.000000,,2013-07-04 06:01:00,
2013-07-04 02:11:00,71.0,71.0,29.84,South,175,2.0,11.0,100,0.00,,,0.53,0.000000,,2013-07-04 06:11:00,
2013-07-04 02:43:00,74.0,74.0,29.83,South,179,4.0,11.0,100,0.00,,,0.53,0.000000,,2013-07-04 06:43:00,
2013-07-04 02:53:00,74.0,74.0,29.83,South,179,4.0,11.0,100,0.00,,,0.53,0.000000,,2013-07-04 06:53:00,
2013-07-04 03:02:00,74.0,74.0,29.83,South,179,4.0,11.0,100,0.00,,,0.53,0.000000,,2013-07-04 07:02:00,
2013-07-04 03:12:00,74.0,74.0,29.83,South,179,4.0,11.0,100,0.00,,,0.53,0.000000,,2013-07-04 07:12:00,
2013-07-04 03:43:00,74.0,74.0,29.83,South,190,5.0,13.0,100,0.00,,,0.53,0.000000,,2013-07-04 07:43:00,
2013-07-04 03:52:00,74.0,74.0,29.83,South,190,5.0,13.0,100,0.00,,,0.53,0.000000,,2013-07-04 07:52:00,
2013-07-04 04:02:00,74.0,74.0,29.83,South,190,5.0,13.0,100,0.00,,,0.53,0.000000,,2013-07-04 08:02:00,
2013-07-04 04:12:00,74.0,74.0,29.83,South,190,5.0,13.0,100,0.00,,,0.53,0.000000,,2013-07-04 08:12:00,
2013-07-04 04:43:00,74.0,74.0,29.82,SSE,167,3.0,13.0,100,0.01,,,0.54,0.000000,,2013-07-04 08:43:00,
2013-07-04 04:53:00,74.0,74.0,29.82,SSE,167,3.0,13.0,100,0.01,,,0.54,0.000000,,2013-07-04 08:53:00,
2013-07-04 05:02:00,74.0,74.0,29.82,SSE,167,3.0,13.0,100,0.01,,,0.54,0.000000,,2013-07-04 09:02:00,
2013-07-04 05:11:00,74.0,74.0,29.82,SSE,167,3.0,13.0,100,0.01,,,0.54,0.000000,,2013-07-04 09:11:00,
2013-07-04 06:53:00,72.0,72.0,29.84,North,0,3.0,8.0,100,-99.99,,,0.26,0.000000,,2013-07-04 10:53:00,
2013-07-04 07:02:00,72.0,72.0,29.84,North,0,3.0,8.0,100,-99.99,,,0.26,0.000000,,2013-07-04 11:02:00,
2013-07-04 07:12:00,72.0,72.0,29.84,North,0,3.0,8.0,100,-99.99,,,0.26,0.000000,,2013-07-04 11:12:00,
2013-07-04 07:43:00,73.0,73.0,29.85,South,179,3.0,8.0,100,0.00,,,0.26,28.000000,,2013-07-04 11:43:00,
2013-07-04 07:53:00,73.0,73.0,29.85,South,179,3.0,8.0,100,0.00,,,0.26,28.000000,,2013-07-04 11:53:00,
2013-07-04 08:02:00,73.0,73.0,29.85,South,179,3.0,8.0,100,0.00,,,0.26,28.000000,,2013-07-04 12:02:00,
2013-07-04 08:12:00,73.0,73.0,29.85,South,179,3.0,8.0,100,0.00,,,0.26,28.000000,,2013-07-04 12:12:00,
2013-07-04 08:43:00,76.0,76.0,29.86,SSE,168,4.0,11.0,100,0.00,,,0.25,83.000000,,2013-07-04 12:43:00,
2013-07-04 08:52:00,76.0,76.0,29.86,SSE,168,4.0,11.0,100,0.00,,,0.25,83.000000,,2013-07-04 12:52:00,
2013-07-04 09:02:00,76.0,76.0,29.86,SSE,168,4.0,11.0,100,0.00,,,0.25,83.000000,,2013-07-04 13:02:00,
2013-07-04 09:12:00,76.0,76.0,29.86,SSE,168,4.0,11.0,100,0.00,,,0.25,83.000000,,2013-07-04 13:12:00,
2013-07-04 09:43:00,78.0,76.0,29.87,South,185,6.0,13.0,94,0.00,,,0.25,244.000000,,2013-07-04 13:43:00,
2013-07-04 09:53:00,78.0,76.0,29.87,South,185,6.0,13.0,94,0.00,,,0.25,244.000000,,2013-07-04 13:53:00,
2013-07-04 10:02:00,78.0,76.0,29.87,South,185,6.0,13.0,94,0.00,,,0.25,244.000000,,2013-07-04 14:02:00,
2013-07-04 10:12:00,78.0,76.0,29.87,South,185,6.0,13.0,94,0.00,,,0.25,244.000000,,2013-07-04 14:12:00,
2013-07-04 10:43:00,82.0,76.0,29.86,SSE,164,7.0,14.0,82,0.00,,,0.25,416.000000,,2013-07-04 14:43:00,
2013-07-04 10:53:00,82.0,76.0,29.86,SSE,164,7.0,14.0,82,0.00,,,0.25,416.000000,,2013-07-04 14:53:00,
2013-07-04 11:02:00,82.0,76.0,29.86,SSE,164,7.0,14.0,82,0.00,,,0.25,416.000000,,2013-07-04 15:02:00,
2013-07-04 11:11:00,82.0,76.0,29.86,SSE,164,7.0,14.0,82,0.00,,,0.25,416.000000,,2013-07-04 15:11:00,
2013-07-04 11:43:00,83.0,74.0,29.86,South,173,7.0,16.0,74,0.00,,,0.25,723.000000,,2013-07-04 15:43:00,
2013-07-04 11:53:00,83.0,74.0,29.86,South,173,7.0,16.0,74,0.00,,,0.25,723.000000,,2013-07-04 15:53:00,
2013-07-04 12:02:00,83.0,74.0,29.86,South,173,7.0,16.0,74,0.00,,,0.25,723.000000,,2013-07-04 16:02:00,
2013-07-04 12:11:00,83.0,74.0,29.86,South,173,7.0,16.0,74,0.00,,,0.25,723.000000,,2013-07-04 16:11:00,
2013-07-04 12:43:00,84.0,73.0,29.85,SE,144,8.0,15.0,69,0.00,,,0.25,758.000000,,2013-07-04 16:43:00,
2013-07-04 12:52:00,84.0,73.0,29.85,SE,144,8.0,15.0,69,0.00,,,0.25,758.000000,,2013-07-04 16:52:00,
2013-07-04 13:02:00,84.0,73.0,29.85,SE,144,8.0,15.0,69,0.00,,,0.25,758.000000,,2013-07-04 17:02:00,
2013-07-04 13:12:00,84.0,73.0,29.85,SE,144,8.0,15.0,69,0.00,,,0.25,758.000000,,2013-07-04 17:12:00,
2013-07-04 13:43:00,87.0,75.0,29.84,SE,146,6.0,16.0,67,0.00,,,0.25,711.000000,,2013-07-04 17:43:00,
2013-07-04 13:53:00,87.0,75.0,29.84,SE,146,6.0,16.0,67,0.00,,,0.25,711.000000,,2013-07-04 17:53:00,
2013-07-04 14:01:00,87.0,75.0,29.84,SE,146,6.0,16.0,67,0.00,,,0.25,711.000000,,2013-07-04 18:01:00,
2013-07-04 14:11:00,87.0,75.0,29.84,SE,146,6.0,16.0,67,0.00,,,0.25,711.000000,,2013-07-04 18:11:00,
2013-07-04 14:43:00,82.0,74.0,29.84,WNW,282,6.0,18.0,77,0.00,,,0.08,406.000000,,2013-07-04 18:43:00,
2013-07-04 14:52:00,82.0,74.0,29.84,WNW,282,6.0,18.0,77,0.00,,,0.08,406.000000,,2013-07-04 18:52:00,
2013-07-04 15:02:00,82.0,74.0,29.84,WNW,282,6.0,18.0,77,0.00,,,0.08,406.000000,,2013-07-04 19:02:00,
2013-07-04 15:12:00,82.0,74.0,29.84,WNW,282,6.0,18.0,77,0.00,,,0.08,406.000000,,2013-07-04 19:12:00,
2013-07-04 15:43:00,86.0,72.0,29.80,SSE,157,7.0,15.0,63,0.00,,,0.08,669.000000,,2013-07-04 19:43:00,
2013-07-04 15:53:00,86.0,72.0,29.80,SSE,157,7.0,15.0,63,0.00,,,0.08,669.000000,,2013-07-04 19:53:00,
2013-07-04 16:02:00,86.0,72.0,29.80,SSE,157,7.0,15.0,63,0.00,,,0.08,669.000000,,2013-07-04 20:02:00,
2013-07-04 16:11:00,86.0,72.0,29.80,SSE,157,7.0,15.0,63,0.00,,,0.08,669.000000,,2013-07-04 20:11:00,
2013-07-04 16:42:00,85.0,75.0,29.79,SE,145,5.0,17.0,71,0.00,,,-99.99,233.000000,,2013-07-04 20:42:00,
2013-07-04 16:53:00,85.0,75.0,29.79,SE,145,5.0,17.0,71,0.00,,,-99.99,233.000000,,2013-07-04 20:53:00,
2013-07-04 17:01:00,85.0,75.0,29.79,SE,145,5.0,17.0,71,0.00,,,-99.99,233.000000,,2013-07-04 21:01:00,
2013-07-04 17:12:00,85.0,75.0,29.79,SE,145,5.0,17.0,71,0.00,,,-99.99,233.000000,,2013-07-04 21:12:00,
2013-07-04 17:43:00,87.0,70.0,29.79,SSE,148,8.0,18.0,58,0.00,,,0.04,578.000000,,2013-07-04 21:43:00,
2013-07-04 17:53:00,87.0,70.0,29.79,SSE,148,8.0,18.0,58,0.00,,,0.04,578.000000,,2013-07-04 21:53:00,
2013-07-04 18:02:00,87.0,70.0,29.79,SSE,148,8.0,18.0,58,0.00,,,0.04,578.000000,,2013-07-04 22:02:00,
2013-07-04 18:12:00,87.0,70.0,29.79,SSE,148,8.0,18.0,58,0.00,,,0.04,578.000000,,2013-07-04 22:12:00,
2013-07-04 18:43:00,84.0,68.0,29.77,SSE,168,6.0,17.0,59,0.00,,,0.04,471.000000,,2013-07-04 22:43:00,
2013-07-04 18:52:00,84.0,68.0,29.77,SSE,168,6.0,17.0,59,0.00,,,0.04,471.000000,,2013-07-04 22:52:00,
2013-07-04 19:02:00,84.0,68.0,29.77,SSE,168,6.0,17.0,59,0.00,,,0.04,471.000000,,2013-07-04 23:02:00,
2013-07-04 19:12:00,84.0,68.0,29.77,SSE,168,6.0,17.0,59,0.00,,,0.04,471.000000,,2013-07-04 23:12:00,
2013-07-04 19:43:00,85.0,72.0,29.78,SSE,162,5.0,11.0,65,0.00,,,0.04,192.000000,,2013-07-04 23:43:00,
2013-07-04 19:52:00,85.0,72.0,29.78,SSE,162,5.0,11.0,65,0.00,,,0.04,192.000000,,2013-07-04 23:52:00,
2013-07-04 20:01:00,85.0,72.0,29.78,SSE,162,5.0,11.0,65,0.00,,,0.04,192.000000,,2013-07-05 00:01:00,
2013-07-04 20:12:00,85.0,72.0,29.78,SSE,162,5.0,11.0,65,0.00,,,0.04,192.000000,,2013-07-05 00:12:00,
2013-07-04 21:42:00,77.0,72.0,29.81,South,170,4.0,11.0,85,-99.99,,,0.01,2.000000,,2013-07-05 01:42:00,
2013-07-04 21:52:00,77.0,72.0,29.81,South,170,4.0,11.0,85,-99.99,,,0.01,2.000000,,2013-07-05 01:52:00,
2013-07-04 22:02:00,77.0,72.0,29.81,South,170,4.0,11.0,85,-99.99,,,0.01,2.000000,,2013-07-05 02:02:00,
2013-07-04 22:11:00,77.0,72.0,29.81,South,170,4.0,11.0,85,-99.99,,,0.01,2.000000,,2013-07-05 02:11:00,
2013-07-04 22:43:00,74.0,74.0,29.83,SSE,148,2.0,8.0,99,0.00,,,0.01,0.000000,,2013-07-05 02:43:00,
2013-07-04 22:53:00,74.0,74.0,29.83,SSE,148,2.0,8.0,99,0.00,,,0.01,0.000000,,2013-07-05 02:53:00,
2013-07-04 23:02:00,74.0,74.0,29.83,SSE,148,2.0,8.0,99,0.00,,,0.01,0.000000,,2013-07-05 03:02:00,
2013-07-04 23:11:00,74.0,74.0,29.83,SSE,148,2.0,8.0,99,0.00,,,0.01,0.000000,,2013-07-05 03:11:00,
2013-07-04 23:42:00,75.0,75.0,29.84,South,178,4.0,8.0,99,0.00,,,0.01,0.000000,,2013-07-05 03:42:00,
2013-07-04 23:52:00,75.0,75.0,29.84,South,178,4.0,8.0,99,0.00,,,0.01,0.000000,,2013-07-05 03:52:00,